Find Starlink 4372

NORAD ID: 53233 Int'l Des: 2022-084 Owner: SPXS Country: US Constellation: starlink operational
LEOCIRCULARRETROGRADESSO

現在のビュー

3D地球を読み込み中...

About Starlink 4372

Starlink 4372 (NORAD 53233) is a starlink constellation satellite (v1.5) launched Jul 22, 2022 by SPXS of US. It operates in LEO, CIRCULAR, RETROGRADE, SSO orbit with a mass of 297.00 kg.

Starlink 4372について

説明を読み込み中...

次回通過

Passes for default location (London). Set your location on the main map for personalized predictions.

高度履歴

Loading altitude history...

軌道要素

1 53233U 22084AW 26175.17175497 -.00000037 00000-0 13957-5 0 9995
2 53233 97.3170 233.8086 0002230 118.8051 241.3401 15.05660942215333
Epoch: Jun 24, 2026 • Age: 25 hours

現在のステータス

高度 550.9 km
速度 7.59 km/s
衛星直下点 9.72°N, 70.69°E
打ち上げ日 Jul 22, 2022
運用期間 3.9 years
タイプ internet

技術仕様

分類 Payload
質量 297.00 kg
乾燥質量 275.00 kg
総質量 297.00 kg
長さ 0.20 m
直径 2.80 m
スパン 9.00 m
形状 Box + pan
製造者 SPXS
バスタイプ Starlink
フェーズステータス In Orbit
所有者/国 SPXS/US

Most Searched